TimeEST,TemperatureF,Dew PointF,Humidity,Sea Level PressureIn,VisibilityMPH,Wind Direction,Wind SpeedMPH,Gust SpeedMPH,PrecipitationIn,Events,Conditions,WindDirDegrees,DateUTC
12:53 AM,41.0,39.9,96,30.09,9.0,Calm,Calm,-,N/A,,Partly Cloudy,0,2012-11-21 05:53:00
1:53 AM,41.0,39.0,93,30.09,9.0,Calm,Calm,-,N/A,,Partly Cloudy,0,2012-11-21 06:53:00
2:45 AM,39.2,37.4,93,30.09,1.8,Calm,Calm,-,N/A,,Clear,0,2012-11-21 07:45:00
2:53 AM,37.9,37.9,100,30.09,0.5,Calm,Calm,-,N/A,Fog,Fog,0,2012-11-21 07:53:00
3:03 AM,39.2,39.2,100,30.08,0.5,Calm,Calm,-,N/A,Fog,Fog,0,2012-11-21 08:03:00
3:06 AM,39.2,39.2,100,30.08,1.2,Calm,Calm,-,N/A,,Partly Cloudy,0,2012-11-21 08:06:00
3:09 AM,39.2,37.4,93,30.08,4.0,Calm,Calm,-,N/A,,Partly Cloudy,0,2012-11-21 08:09:00
3:53 AM,39.0,37.9,96,30.09,9.0,Calm,Calm,-,N/A,,Clear,0,2012-11-21 08:53:00
4:53 AM,37.9,36.0,93,30.09,8.0,Calm,Calm,-,N/A,,Clear,0,2012-11-21 09:53:00
5:26 AM,37.4,35.6,93,30.10,2.5,Calm,Calm,-,N/A,,Partly Cloudy,0,2012-11-21 10:26:00
5:39 AM,37.4,35.6,93,30.10,8.0,West,3.5,-,N/A,,Partly Cloudy,280,2012-11-21 10:39:00
5:53 AM,37.0,35.1,93,30.10,8.0,Calm,Calm,-,N/A,,Partly Cloudy,0,2012-11-21 10:53:00
6:53 AM,36.0,35.1,97,30.12,9.0,Calm,Calm,-,N/A,,Clear,0,2012-11-21 11:53:00
6:59 AM,37.4,35.6,93,30.12,8.0,Calm,Calm,-,N/A,,Partly Cloudy,0,2012-11-21 11:59:00
7:53 AM,39.9,37.9,93,30.14,7.0,Calm,Calm,-,N/A,,Clear,0,2012-11-21 12:53:00
8:53 AM,46.9,44.1,90,30.16,7.0,North,3.5,-,N/A,,Clear,360,2012-11-21 13:53:00
9:53 AM,53.1,46.0,77,30.17,7.0,NNE,3.5,-,N/A,,Clear,20,2012-11-21 14:53:00
10:53 AM,59.0,45.0,60,30.17,10.0,North,4.6,-,N/A,,Clear,360,2012-11-21 15:53:00
11:53 AM,63.0,45.0,52,30.14,10.0,Variable,5.8,-,N/A,,Clear,0,2012-11-21 16:53:00
12:53 PM,66.9,39.0,36,30.11,10.0,NE,9.2,-,N/A,,Clear,40,2012-11-21 17:53:00
1:53 PM,68.0,36.0,31,30.10,10.0,NNE,11.5,-,N/A,,Clear,30,2012-11-21 18:53:00
2:53 PM,68.0,35.1,30,30.09,10.0,NNE,11.5,17.3,N/A,,Clear,20,2012-11-21 19:53:00
3:53 PM,68.0,35.1,30,30.10,10.0,NNE,8.1,-,N/A,,Clear,30,2012-11-21 20:53:00
4:53 PM,64.0,33.1,31,30.11,10.0,North,5.8,-,N/A,,Clear,360,2012-11-21 21:53:00
5:53 PM,53.1,37.9,57,30.12,10.0,Calm,Calm,-,N/A,,Clear,0,2012-11-21 22:53:00
6:53 PM,46.9,37.9,71,30.13,10.0,Calm,Calm,-,N/A,,Clear,0,2012-11-21 23:53:00
7:53 PM,46.0,37.9,73,30.14,10.0,Calm,Calm,-,N/A,,Clear,0,2012-11-22 00:53:00
8:53 PM,44.1,37.0,76,30.15,10.0,Calm,Calm,-,N/A,,Clear,0,2012-11-22 01:53:00
9:53 PM,42.1,37.0,82,30.16,10.0,Calm,Calm,-,N/A,,Clear,0,2012-11-22 02:53:00
10:53 PM,39.9,37.0,89,30.17,10.0,Calm,Calm,-,N/A,,Clear,0,2012-11-22 03:53:00
11:53 PM,37.9,36.0,93,30.17,10.0,Calm,Calm,-,N/A,,Clear,0,2012-11-22 04:53:00